Regional Weather Roundup
Issued by NWS

Home | Current Version | Previous Version | Graphics & Text | Print | Product List | Glossary On
Versions: 1 2 3 4 5 6 7 8 9 10 11 12 13 14 15 16 17 18 19 20 21 22 23 24 25 26 27 28 29 30 31 32 33 34 35 36 37 38 39 40 41 42 43 44 45 46 47 48 49 50
000
ASUS43 KMPX 280901
RWRMN
WEATHER ROUNDUP FOR MINNESOTA
NATIONAL WEATHER SERVICE TWIN CITIES/CHANHASSEN MN
400 AM CDT SUN MAY 28 2017


NOTE: "FAIR" INDICATES FEW OR NO CLOUDS BELOW 12,000 FEET WITH NO
SIGNIFICANT WEATHER AND/OR OBSTRUCTIONS TO VISIBILITY. N/A MEANS
CURRENT SKY AND/OR WEATHER CONDITIONS ARE NOT AVAILABLE.

MNZ060>063-068>070-281000-
   Twin Cities Metro

CITY           SKY/WX    TMP DP  RH WIND       PRES   REMARKS
TWIN CITIES    MOCLDY    60  48  64 SW5       29.76F
ST PAUL        PTCLDY    57  50  77 CALM      29.76F
CRYSTAL        CLEAR     58  46  64 S5        29.74F
BLAINE         PTCLDY    57  48  72 SW6       29.74F
LAKEVILLE      CLEAR     54  48  82 S5        29.77F
EDEN PRAIRIE   PTCLDY    56  49  77 SW6       29.75F
SOUTH ST PAUL  CLEAR     57  47  71 SW3       29.76F
LAKE ELMO      FAIR      52  48  87 S6        29.76F
$$
MNZ001>005-007-008-013>017-022>024-027-028-281000-
   Northwest Minnesota

CITY           SKY/WX    TMP DP  RH WIND       PRES   REMARKS
BEMIDJI        CLOUDY    49  47  94 W9        29.69F
HALLOCK        CLEAR     46  45  93 W5        29.72S
ROSEAU         MOCLDY    54  46  76 NW6       29.68S
WARROAD        CLOUDY    54  48  82 W6        29.67S
CROOKSTON      CLOUDY    52  50  93 W7        29.73F
FOSSTON        CLOUDY    48  46  93 W8        29.72S
DETROIT LAKES  CLOUDY    48  46  93 W8        29.75S
MOORHEAD       CLOUDY    52  46  82 NW14      29.77S
PARK RAPIDS    LGT RAIN  49  44  83 W8        29.71S
MAHNOMEN       CLOUDY    48  46  93 W10       29.73S
$$
MNZ006-009>011-018-025>026-281000-
   North Central Minnesota

CITY           SKY/WX    TMP DP  RH WIND       PRES   REMARKS
BAUDETTE       CLOUDY    52  45  77 W7        29.65F
FLAG ISLAND    CLOUDY    55  46  71 NW13      29.64S
INTL FALLS     CLOUDY    50  45  83 CALM      29.65F
WASKISH        CLOUDY    54  52  94 CALM      29.67F
BIG FORK       CLOUDY    55  46  71 W3        29.68S
LONGVILLE      CLOUDY    54  48  82 W5        29.69R
GRAND RAPIDS   CLOUDY    56  47  71 NW7       29.69F
CRANE LAKE     PTCLDY    46  46 100 CALM      29.68F
ORR            CLOUDY    54  43  66 CALM      29.64F
COOK           CLOUDY    50  45  81 CALM      29.68S
WALKER         FAIR      49  47  93 W7        29.69S
$$
MNZ012-019>021-037-281000-
   Northeast Minnesota

CITY           SKY/WX    TMP DP  RH WIND       PRES   REMARKS
DULUTH         CLOUDY    57  47  69 SW9       29.70F
ELY            CLOUDY    52  43  71 CALM      29.69F
HIBBING        LGT RAIN  46  46 100 CALM      29.68F
EVELETH        CLOUDY    42  41  93 NE3       29.70F
DULUTH HARBOR  CLOUDY    57  52  82 SW5       29.70F
TWO HARBORS    PTCLDY    55  46  71 NW3       29.68F
SILVER BAY     CLOUDY    48  46  93 CALM      29.69F
GRAND MARAIS     N/A     46  43  89 CALM      29.70S
G MARAIS ARPRT CLOUDY    46  39  76 NW3       29.72F
$$
MNZ029>031-032-039>041-046>048-054>057-064-281000-
   West Central Minnesota

CITY           SKY/WX    TMP DP  RH WIND       PRES   REMARKS
FERGUS FALLS   MOCLDY    48  48 100 NW9       29.76S
WHEATON        CLEAR     52  46  82 W9        29.82S
MORRIS         CLEAR     52  48  87 NW13      29.78S
ALEXANDRIA     CLEAR     52  47  83 W13       29.76F
ELBOW LAKE     FAIR      49  47  95 NW9       29.78S
WADENA         CLEAR     48  48 100 W7        29.73S
GLENWOOD       PTCLDY    52  46  82 W9        29.77S
APPLETON       CLEAR     55  46  71 NW10      29.79S
BENSON         CLEAR     54  46  76 NW13      29.79F
ORTONVILLE     CLEAR     54  46  76 NW9       29.80S
MADISON        CLEAR     57  46  67 NW10      29.81S
WILLMAR        FAIR      54  48  82 W10       29.78R
$$
MNZ033>034-036-042>043-049>051-058-059-281000-
   Central Minnesota

CITY           SKY/WX    TMP DP  RH WIND       PRES   REMARKS
ST CLOUD       CLOUDY    57  48  72 SW5       29.72F
SAUK CENTRE    FAIR      51  46  84 W7        29.76R
PAYNESVILLE    CLEAR     53  46  77 W6        29.76R
AITKIN         MOCLDY    55  46  71 S3        29.69S
PINE RIVER     MOCLDY    54  48  82 W7        29.75R
BRAINERD       CLOUDY    54  46  74 W3        29.71F
STAPLES        CLEAR     50  46  87 W7        29.72F
LONG PRAIRIE   FAIR      54  45  71 SW9G17    29.75S
LITTLE FALLS   MOCLDY    46  43  87 CALM      29.73S
LITCHFIELD     PTCLDY    55  48  76 CALM      29.75F
BUFFALO        MOCLDY    58  47  68 CALM      29.74F
MAPLE LAKE     MOCLDY    58  50  74 SW3       29.75F
HUTCHINSON     MOCLDY    57  50  77 SW6       29.77F
$$
MNZ037-044-045-052-053-281000-
   East Central Minnesota

CITY           SKY/WX    TMP DP  RH WIND       PRES   REMARKS
PRINCETON      CLOUDY    57  48  72 SE5       29.71F
MORA           PTCLDY    55  46  71 W3        29.74F
CAMBRIDGE      CLOUDY    61  46  59 CALM      29.71F
RUSH CITY      PTCLDY    56  47  70 CALM      29.73F
MOOSE LAKE     CLOUDY    46  45  93 CALM      29.69F
HINCKLEY       FAIR      54  50  87 SW3       29.72F
CLOQUET        CLOUDY    52  45  76 S7        29.70F
MCGREGOR       CLOUDY    54  46  76 S3        29.70F
$$
MNZ071>073-080-081-089-090-097-098-281000-
   Southwest Minnesota

CITY           SKY/WX    TMP DP  RH WIND       PRES   REMARKS
MONTEVIDEO     CLEAR     55  48  76 N10       29.79S
CANBY          CLEAR     56  48  74 NW12G18   29.83R
MARSHALL       CLEAR     56  49  77 W17       29.80S
REDWOOD FALLS  CLEAR     57  48  72 W9        29.77S
OLIVIA         CLEAR     52  46  82 W7        29.76F
PIPESTONE      CLEAR     54  46  76 NW7       29.83F
WINDOM         CLEAR     54  48  82 W8        29.80F
WORTHINGTON    CLEAR     53  48  83 W12       29.83F
JACKSON        CLEAR     54  46  76 SW9       29.82F
TRACY          CLEAR     57  51  79 W9        29.80S
SLAYTON        CLEAR     54  49  83 W12G18    29.82S
$$
MNZ065>067-074>077-082>085-091>093-281000-
   South Central Minnesota

CITY           SKY/WX    TMP DP  RH WIND       PRES   REMARKS
MANKATO        MOCLDY    57  50  77 SW8       29.79F
NEW ULM        PTCLDY    55  48  76 SW8       29.77F
ST JAMES       CLEAR     54  50  87 S7        29.79F
FAIRMONT       PTCLDY    57  51  80 W10       29.82F
GLENCOE        PTCLDY    59  53  79 SW5       29.75F
FARIBAULT      PTCLDY    55  48  76 S5        29.79F
OWATONNA       PTCLDY    55  46  71 S8        29.80F
WASECA         CLEAR     52  46  82 S7        29.81F
ALBERT LEA     CLOUDY    57  52  82 SW5       29.82F
$$
MNZ078>079-086>088-094>096-281000-
   Southeast Minnesota

CITY           SKY/WX    TMP DP  RH WIND       PRES   REMARKS
ROCHESTER      CLOUDY    55  51  86 SW8       29.82F
RED WING       MOCLDY    55  48  76 CALM      29.77F
STANTON        CLEAR     56  48  74 S5        29.77F
DODGE CENTER   CLOUDY    54  48  82 SW6       29.81F
WINONA         LGT RAIN  55  55 100 CALM      29.80S
AUSTIN         MOCLDY    54  48  82 CALM      29.81F
PRESTON        CLOUDY    56  48  73 W6        29.82S
$$
ABBREVIATIONS USED IN REMARKS
   TC - TEMPERATURES IN CELSIUS
  WCI - WIND CHILL INDEX
   HX - HEAT INDEX
  VSB - VISIBILITY
$$




USA.gov is the U.S. government's official web portal to all federal, state and local government web resources and services.